This is the latest recevied weather packets stored in our database for station/object DB0TGO-13. If no packets are shown the sender has not sent any weather packets the latest 10 day(s).
| Time | Temp. | Humidity | Pressure | Rain* | Wind** | Luminosity | Snow |
|---|---|---|---|---|---|---|---|
| 1777986003 | 18.33° C | 66% | 1003.2 hPa | - | - | - | - |
| 1777985103 | 17.78° C | 69% | 1003.3 hPa | - | - | - | - |
| 1777984202 | 17.78° C | 69% | 1003.3 hPa | - | - | - | - |
| 1777983302 | 17.78° C | 69% | 1003.6 hPa | - | - | - | - |
| 1777982402 | 17.78° C | 69% | 1003.6 hPa | - | - | - | - |
| 1777981503 | 17.22° C | 70% | 1003.8 hPa | - | - | - | - |
| 1777980602 | 17.22° C | 70% | 1003.8 hPa | - | - | - | - |
| 1777979702 | 17.22° C | 75% | 1003.9 hPa | - | - | - | - |
| 1777978802 | 17.22° C | 75% | 1003.9 hPa | - | - | - | - |
| 1777977903 | 16.67° C | 76% | 1003.9 hPa | - | - | - | - |
| 1777977002 | 16.67° C | 76% | 1003.9 hPa | - | - | - | - |
| 1777976102 | 16.11° C | 76% | 1003.9 hPa | - | - | - | - |
| 1777975203 | 16.11° C | 76% | 1003.9 hPa | - | - | - | - |
| 1777974302 | 15.56° C | 78% | 1004.1 hPa | - | - | - | - |
| 1777973402 | 15.56° C | 78% | 1004.1 hPa | - | - | - | - |
| 1777972502 | 15° C | 80% | 1004.2 hPa | - | - | - | - |
| 1777971602 | 15° C | 80% | 1004.2 hPa | - | - | - | - |
| 1777970703 | 15° C | 79% | 1004.3 hPa | - | - | - | - |
| 1777969802 | 15° C | 79% | 1004.3 hPa | - | - | - | - |
| 1777968902 | 14.44° C | 79% | 1004.2 hPa | - | - | - | - |
| 1777968003 | 14.44° C | 79% | 1004.2 hPa | - | - | - | - |
| 1777967102 | 14.44° C | 80% | 1004.2 hPa | - | - | - | - |
| 1777966202 | 14.44° C | 80% | 1004.2 hPa | - | - | - | - |
| 1777965302 | 13.89° C | 80% | 1004.3 hPa | - | - | - | - |
| 1777964402 | 13.89° C | 80% | 1004.3 hPa | - | - | - | - |
* Rain since midnight (hover to see other rain measurements)
** Current wind speed in m/s (hover to see current wind gust speed)